Regional Weather Roundup
Issued by NWS

Home | Current Version | Previous Version | Text Only | Print | Product List | Glossary Off
Versions: 1 2 3 4 5 6 7 8 9 10 11 12 13 14 15 16 17 18 19 20 21 22 23 24 25 26 27 28 29 30 31 32 33 34 35 36 37 38 39 40 41 42 43 44 45 46 47 48 49 50

323
ASUS43 KFSD 301702
RWRSD

WEATHER ROUNDUP FOR SOUTH DAKOTA
NATIONAL WEATHER SERVICE SIOUX FALLS SD
1200 PM CDT SUN APR 30 2017

NOTE: "FAIR" INDICATES FEW OR NO CLOUDS BELOW 12,000 FEET WITH NO
SIGNIFICANT WEATHER AND/OR OBSTRUCTIONS TO VISIBILITY.


SDZ001>005-009-010-012>017-301800-
NORTHWEST AND NORTH CENTRAL SOUTH DAKOTA

CITY           SKY/WX    TMP DP  RH WIND       PRES   REMARKS
BUFFALO          N/A     56  19  23 S10       29.92S
FAITH            N/A     55  20  25 NE12G21   30.00R
$$

SDZ012>016-024>037-041>051-057-063-072>074-301800-
SOUTHWEST AND SOUTH CENTRAL SOUTH DAKOTA

CITY           SKY/WX    TMP DP  RH WIND       PRES   REMARKS
RAPID CTY ARPT SUNNY     54  21  27 E9        30.01R
PIERRE         CLOUDY    54  25  32 N10       29.96F
CUSTER         SUNNY     44  15  31 NE9       29.99S
ELLSWORTH AFB  SUNNY     53  21  28 E6        30.01R
PHILIP         CLOUDY    54  22  28 NE14      29.99F
PINE RIDGE     CLOUDY    50  22  33 N12       29.99F
SPEARFISH      FAIR      50  21  32 CALM      30.00S
WINNER         FAIR      50  22  33 NE22G32   29.91F
$$

SDZ004>011-016>023-039-040-301800-
NORTHEAST SOUTH DAKOTA

CITY           SKY/WX    TMP DP  RH WIND       PRES   REMARKS
ABERDEEN       CLOUDY    53  19  26 NE21G26   30.00F
WATERTOWN      CLOUDY    46  27  47 NE18G28   29.95F
BROOKINGS      CLOUDY    43  27  53 NE15G26   29.93F
SISSETON         N/A     53  24  32 E15       30.00F
$$

SDZ017-020-022-023-036>040-048>070-301800-
SOUTHEAST SOUTH DAKOTA

CITY           SKY/WX    TMP DP  RH WIND       PRES   REMARKS
SIOUX FALLS    LGT RAIN  41  40  96 NE22G28   29.89F
HURON          CLOUDY    50  28  42 NE16      29.94F
CHAMBERLAIN    CLOUDY    50  21  32 N14G23    29.93F
MITCHELL       CLOUDY    48  29  47 NE17      29.93F
YANKTON        CLOUDY    37  34  87 N18G28    29.85F
$$

ABBREVIATIONS USED IN REMARKS
   TC - TEMPERATURE IN CELSIUS
  WCI - WIND CHILL INDEX
   HX - HEAT INDEX
  VSB - VISIBILITY





USA.gov is the U.S. government's official web portal to all federal, state and local government web resources and services.